Location: Unspecified
(34.4950°S, 58.5160°W)
Time: 08:16:55
(UTC+00:00)

COBE Rocket - Pass Details

Date: 15 December 2025
Orbit: 676 x 772 km, 97.1° (Epoch: 18 January)

Event Time Altitude Azimuth Distance (km) Brightness Sun altitude
Rises 23:40:45 0° 7° (N) 3,227 6.8 -7.4°
Reaches altitude 10° 23:43:03 10° 5° (N) 2,313 6.1 -7.8°
Maximum altitude 23:48:10 71° 281° (W) 822 4.3 -8.6°
Drops below altitude 10° 23:53:21 10° 196° (SSW) 2,336 7.4 -9.5°
Sets 23:55:41 0° 193° (SSW) 3,262 8.1 -9.9°
